FW2343 Weather Reports


Display with metric or nautical units.
time (UTC)temp
F
wind
direction
speed
MPH
gust
MPH
rain 1hr
in
rain 24hr
in
rain mn
in
humidity
%
barometer
mb
20260905145212 94 282 4.0 13.0 0.00 0.00 0.00 30 1021.1
20260905144713 93 253 4.0 13.0 0.00 0.00 0.00 31 1021.1
20260905143211 93 292 4.0 14.0 0.00 0.00 0.00 32 1021.3
20260905142708 93 336 3.0 14.0 0.00 0.00 0.00 31 1021.3
20260905142212 93 277 4.0 14.0 0.00 0.00 0.00 32 1021.3
20260905141717 93 272 6.0 13.0 0.00 0.00 0.00 32 1021.3
20260905141208 93 279 5.0 13.0 0.00 0.00 0.00 32 1021.4
20260905140713 93 285 2.0 13.0 0.00 0.00 0.00 33 1021.4
20260905140207 92 334 4.0 13.0 0.00 0.00 0.00 33 1021.4
20260905135707 92 272 4.0 11.0 0.00 0.00 0.00 33 1021.5
20260905135212 93 268 5.0 11.0 0.00 0.00 0.00 32 1021.6
20260905134710 93 281 2.0 12.0 0.00 0.00 0.00 33 1021.6
20260905134207 92 286 4.0 12.0 0.00 0.00 0.00 32 1021.6
20260905133708 92 278 2.0 12.0 0.00 0.00 0.00 32 1021.7
20260905133218 92 277 4.0 14.0 0.00 0.00 0.00 32 1021.7
20260905132709 92 278 3.0 14.0 0.00 0.00 0.00 32 1021.8
20260905132209 92 270 6.0 14.0 0.00 0.00 0.00 32 1021.8
20260905131710 91 251 5.0 12.0 0.00 0.00 0.00 31 1021.9
20260905131217 91 279 3.0 12.0 0.00 0.00 0.00 32 1021.8
20260905130712 91 322 4.0 13.0 0.00 0.00 0.00 33 1022.2
20260905130213 91 265 4.0 13.0 0.00 0.00 0.00 33 1022.2
20260905125714 91 230 6.0 13.0 0.00 0.00 0.00 34 1022.3
20260905125216 91 250 4.0 12.0 0.00 0.00 0.00 33 1022.3
20260905124715 91 282 3.0 14.0 0.00 0.00 0.00 33 1022.4
20260905124207 91 282 4.0 14.0 0.00 0.00 0.00 32 1022.4
20260905123717 91 268 5.0 14.0 0.00 0.00 0.00 32 1022.4
20260905123215 91 271 6.0 14.0 0.00 0.00 0.00 33 1022.3
20260905122714 90 260 4.0 14.0 0.00 0.00 0.00 33 1022.4
20260905122213 90 331 6.0 13.0 0.00 0.00 0.00 34 1022.5
20260905121711 90 264 4.0 13.0 0.00 0.00 0.00 32 1022.5
20260905121211 90 271 5.0 14.0 0.00 0.00 0.00 32 1022.4
20260905120720 90 288 2.0 15.0 0.00 0.00 0.00 33 1022.5
20260905120210 89 352 2.0 15.0 0.00 0.00 0.00 33 1022.5
20260905115708 89 257 6.0 15.0 0.00 0.00 0.00 35 1022.4
20260905115215 89 267 6.0 14.0 0.00 0.00 0.00 34 1022.5
20260905114711 89 274 4.0 14.0 0.00 0.00 0.00 34 1022.8
20260905114235 89 268 7.0 13.0 0.00 0.00 0.00 37 1022.8
20260905113705 88 247 4.0 14.0 0.00 0.00 0.00 37 1023.0
20260905113213 88 264 6.0 14.0 0.00 0.00 0.00 37 1022.9
20260905112219 87 327 5.0 14.0 0.00 0.00 0.00 37 1023.1
20260905111716 88 267 5.0 13.0 0.00 0.00 0.00 35 1023.0
20260905111219 87 286 5.0 13.0 0.00 0.00 0.00 36 1023.1
20260905110711 87 281 6.0 13.0 0.00 0.00 0.00 35 1023.2
20260905110205 87 329 4.0 13.0 0.00 0.00 0.00 36 1023.2
20260905105708 86 330 5.0 13.0 0.00 0.00 0.00 35 1023.2
20260905105206 87 257 1.0 13.0 0.00 0.00 0.00 35 1023.3
20260905104708 87 254 4.0 10.0 0.00 0.00 0.00 38 1023.3
20260905104219 86 279 2.0 10.0 0.00 0.00 0.00 39 1023.3
20260905103715 86 258 5.0 12.0 0.00 0.00 0.00 40 1023.3
20260905103214 85 284 4.0 12.0 0.00 0.00 0.00 39 1023.4
20260905102711 85 326 4.0 12.0 0.00 0.00 0.00 44 1023.5
20260905102210 85 282 5.0 11.0 0.00 0.00 0.00 43 1023.6
20260905101208 85 275 5.0 11.0 0.00 0.00 0.00 44 1023.7
20260905100711 85 289 3.0 10.0 0.00 0.00 0.00 46 1023.7
20260905100212 84 281 2.0 10.0 0.00 0.00 0.00 46 1023.9
20260905095712 84 277 3.0 10.0 0.00 0.00 0.00 48 1023.9
20260905095219 84 267 3.0 10.0 0.00 0.00 0.00 48 1024.0
20260905094712 83 281 4.0 9.0 0.00 0.00 0.00 49 1024.0
20260905094213 82 288 3.0 10.0 0.00 0.00 0.00 50 1024.1
20260905093716 82 329 3.0 10.0 0.00 0.00 0.00 52 1024.1
20260905092741 82 285 4.0 13.0 0.00 0.00 0.00 53 1024.1
20260905092206 81 282 1.0 13.0 0.00 0.00 0.00 53 1024.2
20260905091718 81 291 3.0 10.0 0.00 0.00 0.00 55 1024.1
20260905091214 80 274 3.0 13.0 0.00 0.00 0.00 55 1024.2
20260905090216 80 305 3.0 13.0 0.00 0.00 0.00 56 1024.0
20260905085217 79 288 5.0 11.0 0.00 0.00 0.00 56 1024.0
20260905084705 79 291 4.0 11.0 0.00 0.00 0.00 56 1024.0
20260905084206 78 268 4.0 10.0 0.00 0.00 0.00 57 1024.0
20260905083711 78 278 2.0 11.0 0.00 0.00 0.00 57 1024.0
20260905083211 78 267 4.0 11.0 0.00 0.00 0.00 57 1024.0
20260905082715 78 288 4.0 11.0 0.00 0.00 0.00 57 1024.0
20260905082212 78 292 4.0 11.0 0.00 0.00 0.00 58 1024.0
20260905081711 77 270 3.0 11.0 0.00 0.00 0.00 59 1023.8
20260905081237 77 289 5.0 11.0 0.00 0.00 0.00 59 1023.8
20260905080718 77 282 4.0 15.0 0.00 0.00 0.00 59 1023.8
20260905075717 77 281 4.0 15.0 0.00 0.00 0.00 59 1023.8
20260905075214 76 286 6.0 11.0 0.00 0.00 0.00 59 1023.7
20260905074714 76 285 3.0 11.0 0.00 0.00 0.00 59 1023.7
20260905073709 76 260 1.0 10.0 0.00 0.00 0.00 60 1023.6
20260905073212 76 244 2.0 10.0 0.00 0.00 0.00 60 1023.6
20260905072715 76 302 3.0 10.0 0.00 0.00 0.00 60 1023.6
20260905072209 76 241 2.0 7.0 0.00 0.00 0.00 60 1023.6
20260905071706 76 243 0.0 10.0 0.00 0.00 0.00 61 1023.6
20260905071213 76 316 1.0 11.0 0.00 0.00 0.00 61 1023.6
20260905070715 75 258 2.0 11.0 0.00 0.00 0.00 62 1023.5
20260905070218 75 215 2.0 11.0 0.00 0.00 0.00 62 1023.7
20260905065718 74 239 4.0 11.0 0.00 0.00 0.00 63 1023.5
20260905065207 74 244 4.0 0.0 0.00 0.00 0.00 64 1023.5
20260905064720 73 0 0.0 0.0 0.00 0.00 0.00 64 1023.4
20260905064212 72 0 0.0 0.0 0.00 0.00 0.00 66 1023.5
20260905063729 71 0 0.0 0.0 0.00 0.00 0.00 66 1023.5
20260905062716 70 0 0.0 0.0 0.00 0.00 0.00 67 1023.4
20260905061735 69 0 0.0 0.0 0.00 0.00 0.00 67 1023.3
20260905061207 69 0 0.0 0.0 0.00 0.00 0.00 67 1023.2
20260905060710 69 0 0.0 0.0 0.00 0.00 0.00 67 1023.1
20260905060214 69 0 0.0 0.0 0.00 0.00 0.00 67 1023.1
20260905055706 69 0 0.0 0.0 0.00 0.00 0.00 66 1022.9
20260905055218 69 0 0.0 0.0 0.00 0.00 0.00 66 1022.8
20260905054705 69 0 0.0 0.0 0.00 0.00 0.00 67 1022.7
20260905054207 69 0 0.0 0.0 0.00 0.00 0.00 70 1022.6
20260905053219 67 0 0.0 0.0 0.00 0.00 0.00 70 1022.7
20260905052712 67 0 0.0 0.0 0.00 0.00 0.00 69 1022.6
20260905052210 67 0 0.0 0.0 0.00 0.00 0.00 68 1022.6
20260905051718 67 0 0.0 0.0 0.00 0.00 0.00 68 1022.5
20260905051207 67 0 0.0 0.0 0.00 0.00 0.00 68 1022.5
20260905050706 67 0 0.0 0.0 0.00 0.00 0.00 67 1022.5
20260905050209 67 0 0.0 0.0 0.00 0.00 0.00 67 1022.4
20260905045214 67 0 0.0 0.0 0.00 0.00 0.00 67 1022.5
20260905044718 67 0 0.0 0.0 0.00 0.00 0.00 66 1022.5
20260905044219 67 0 0.0 0.0 0.00 0.00 0.00 66 1022.5
20260905043705 67 0 0.0 0.0 0.00 0.00 0.00 66 1022.4
20260905043218 67 0 0.0 0.0 0.00 0.00 0.00 66 1022.5
20260905042716 68 0 0.0 0.0 0.00 0.00 0.00 66 1022.2
20260905042210 68 0 0.0 0.0 0.00 0.00 0.00 66 1022.2
20260905041714 68 0 0.0 0.0 0.00 0.00 0.00 65 1022.2
20260905041205 68 0 0.0 0.0 0.00 0.00 0.00 65 1022.1
20260905040706 68 0 0.0 0.0 0.00 0.00 0.00 65 1022.2
20260905040218 69 0 0.0 0.0 0.00 0.00 0.00 64 1022.1
20260905035712 69 0 0.0 0.0 0.00 0.00 0.00 65 1022.1
20260905035212 69 0 0.0 0.0 0.00 0.00 0.00 64 1022.1
20260905034210 69 0 0.0 0.0 0.00 0.00 0.00 63 1022.2
20260905033217 69 0 0.0 0.0 0.00 0.00 0.00 62 1022.2
20260905032705 69 0 0.0 0.0 0.00 0.00 0.00 62 1022.1
20260905031707 69 0 0.0 0.0 0.00 0.00 0.00 62 1022.1
20260905031213 69 0 0.0 0.0 0.00 0.00 0.00 62 1022.2
20260905030226 70 0 0.0 0.0 0.00 0.00 0.00 62 1022.1
20260905025717 70 0 0.0 0.0 0.00 0.00 0.00 62 1022.1
20260905025215 70 0 0.0 0.0 0.00 0.00 0.00 61 1022.2
20260905024714 69 0 0.0 0.0 0.00 0.00 0.00 61 1022.1
20260905023707 69 0 0.0 0.0 0.00 0.00 0.00 62 1022.1
20260905023235 69 0 0.0 0.0 0.00 0.00 0.00 62 1022.0
20260905022711 69 0 0.0 0.0 0.00 0.00 0.00 62 1022.0
20260905022207 69 0 0.0 0.0 0.00 0.00 0.00 62 1022.0
20260905021707 69 0 0.0 0.0 0.00 0.00 0.00 61 1022.0
20260905021219 69 0 0.0 0.0 0.00 0.00 0.00 61 1021.8
20260905020713 69 0 0.0 0.0 0.00 0.00 0.00 61 1021.7
20260905020214 69 0 0.0 0.0 0.00 0.00 0.00 61 1021.8
20260905015709 69 0 0.0 0.0 0.00 0.00 0.00 61 1021.7
20260905015214 69 0 0.0 0.0 0.00 0.00 0.00 61 1021.7
20260905014707 69 0 0.0 0.0 0.00 0.00 0.00 61 1021.7
20260905014211 69 0 0.0 0.0 0.00 0.00 0.00 60 1021.6
20260905013709 69 0 0.0 0.0 0.00 0.00 0.00 60 1021.7
20260905013217 69 0 0.0 0.0 0.00 0.00 0.00 60 1021.7
20260905012706 69 0 0.0 0.0 0.00 0.00 0.00 61 1021.6
20260905012206 69 0 0.0 0.0 0.00 0.00 0.00 60 1021.5
20260905011708 69 0 0.0 0.0 0.00 0.00 0.00 60 1021.4
20260905011221 69 0 0.0 0.0 0.00 0.00 0.00 59 1021.4
20260905010708 69 0 0.0 0.0 0.00 0.00 0.00 59 1021.4
20260905010218 69 0 0.0 0.0 0.00 0.00 0.00 59 1021.4
20260905005707 69 0 0.0 0.0 0.00 0.00 0.00 59 1021.2
20260905004716 70 0 0.0 0.0 0.00 0.00 0.00 58 1021.2
20260905003217 71 0 0.0 0.0 0.00 0.00 0.00 56 1021.2
20260905002211 71 0 0.0 0.0 0.00 0.00 0.00 55 1021.2
20260905001712 72 0 0.0 0.0 0.00 0.00 0.00 54 1021.2
20260905001216 72 0 0.0 0.0 0.00 0.00 0.00 54 1021.3
20260905000711 72 0 0.0 0.0 0.00 0.00 0.00 53 1021.3
20260905000211 73 0 0.0 0.0 0.00 0.00 0.00 53 1021.2
20260904235219 73 0 0.0 0.0 0.00 0.00 0.00 52 1021.2
20260904234708 73 0 0.0 0.0 0.00 0.00 0.00 52 1021.2
20260904234210 73 0 0.0 0.0 0.00 0.00 0.00 51 1021.2
20260904233707 74 0 0.0 0.0 0.00 0.00 0.00 51 1021.2
20260904233217 74 0 0.0 0.0 0.00 0.00 0.00 51 1021.3
20260904232712 74 0 0.0 0.0 0.00 0.00 0.00 51 1021.2
20260904232214 74 0 0.0 0.0 0.00 0.00 0.00 51 1021.1
20260904231710 74 0 0.0 0.0 0.00 0.00 0.00 50 1021.1
20260904230713 74 0 0.0 0.0 0.00 0.00 0.00 50 1021.0
20260904230217 74 0 0.0 0.0 0.00 0.00 0.00 50 1021.0
20260904225716 74 0 0.0 0.0 0.00 0.00 0.00 50 1021.0
20260904225209 74 0 0.0 0.0 0.00 0.00 0.00 50 1021.0
20260904224218 74 0 0.0 0.0 0.00 0.00 0.00 50 1020.7
20260904223713 74 0 0.0 0.0 0.00 0.00 0.00 50 1020.8
20260904223217 74 0 0.0 0.0 0.00 0.00 0.00 50 1020.7
20260904222716 74 0 0.0 0.0 0.00 0.00 0.00 50 1020.6
20260904222213 74 0 0.0 0.0 0.00 0.00 0.00 51 1020.6
20260904221709 74 0 0.0 0.0 0.00 0.00 0.00 51 1020.5
20260904221212 74 0 0.0 0.0 0.00 0.00 0.00 50 1020.5
20260904220719 74 0 0.0 0.0 0.00 0.00 0.00 50 1020.5
20260904220208 74 0 0.0 0.0 0.00 0.00 0.00 50 1020.4
20260904215712 75 0 0.0 0.0 0.00 0.00 0.00 50 1020.4
20260904215211 75 0 0.0 0.0 0.00 0.00 0.00 50 1020.2
20260904214712 75 0 0.0 0.0 0.00 0.00 0.00 49 1020.3
20260904214205 76 0 0.0 0.0 0.00 0.00 0.00 49 1020.3
20260904213717 76 0 0.0 0.0 0.00 0.00 0.00 48 1020.2
20260904212715 76 0 0.0 0.0 0.00 0.00 0.00 47 1020.2
20260904212215 77 0 0.0 0.0 0.00 0.00 0.00 47 1020.2
20260904211707 77 0 0.0 0.0 0.00 0.00 0.00 47 1020.1
20260904211207 77 0 0.0 0.0 0.00 0.00 0.00 46 1020.1
20260904210710 77 0 0.0 0.0 0.00 0.00 0.00 46 1020.1
20260904210219 77 0 0.0 0.0 0.00 0.00 0.00 46 1020.1
20260904205707 78 0 0.0 0.0 0.00 0.00 0.00 45 1020.1
20260904204708 78 0 0.0 0.0 0.00 0.00 0.00 45 1020.0
20260904204219 78 0 0.0 0.0 0.00 0.00 0.00 45 1020.0
20260904203715 78 0 0.0 0.0 0.00 0.00 0.00 46 1019.9
20260904203207 78 0 0.0 0.0 0.00 0.00 0.00 45 1019.9
20260904202211 78 0 0.0 0.0 0.00 0.00 0.00 45 1019.9
20260904201718 78 0 0.0 0.0 0.00 0.00 0.00 45 1019.8
20260904201213 79 0 0.0 0.0 0.00 0.00 0.00 45 1019.8
20260904200710 79 0 0.0 0.0 0.00 0.00 0.00 44 1019.7
20260904195707 80 0 0.0 0.0 0.00 0.00 0.00 43 1019.7
20260904194718 81 0 0.0 0.0 0.00 0.00 0.00 42 1019.4
20260904193719 82 0 0.0 0.0 0.00 0.00 0.00 40 1019.3
20260904192710 83 0 0.0 0.0 0.00 0.00 0.00 39 1019.1
20260904191709 84 0 0.0 0.0 0.00 0.00 0.00 37 1018.9
20260904191233 84 0 0.0 0.0 0.00 0.00 0.00 37 1018.8
20260904190707 85 0 0.0 0.0 0.00 0.00 0.00 36 1018.7
20260904185714 87 0 0.0 0.0 0.00 0.00 0.00 35 1018.5
20260904184716 88 0 0.0 0.0 0.00 0.00 0.00 34 1018.4
20260904183717 89 0 0.0 0.0 0.00 0.00 0.00 31 1018.3
20260904183209 89 0 0.0 0.0 0.00 0.00 0.00 31 1018.2
20260904182710 90 0 0.0 0.0 0.00 0.00 0.00 30 1018.2
20260904181712 92 0 0.0 0.0 0.00 0.00 0.00 28 1018.2
20260904181216 93 0 0.0 0.0 0.00 0.00 0.00 28 1018.0
20260904180206 95 0 0.0 0.0 0.00 0.00 0.00 27 1018.0
20260904175711 95 0 0.0 0.0 0.00 0.00 0.00 26 1018.0
20260904175207 96 0 0.0 0.0 0.00 0.00 0.00 25 1018.0
20260904174717 96 0 0.0 0.0 0.00 0.00 0.00 24 1018.0
20260904174211 96 0 0.0 0.0 0.00 0.00 0.00 24 1017.9
20260904173709 97 0 0.0 4.0 0.00 0.00 0.00 24 1017.9
20260904173218 97 0 0.0 9.0 0.00 0.00 0.00 24 1018.0
20260904172711 97 0 0.0 9.0 0.00 0.00 0.00 24 1017.9
20260904172210 98 33 0.0 9.0 0.00 0.00 0.00 24 1017.9
20260904171711 97 21 0.0 4.0 0.00 0.00 0.00 24 1017.9
20260904171233 98 0 0.0 7.0 0.00 0.00 0.00 23 1017.9
20260904170715 98 0 0.0 7.0 0.00 0.00 0.00 24 1017.9
20260904170217 98 0 0.0 9.0 0.00 0.00 0.00 24 1017.9
20260904165207 98 8 0.0 11.0 0.00 0.00 0.00 24 1017.9
20260904164717 98 358 1.0 11.0 0.00 0.00 0.00 24 1018.0
20260904164241 98 324 2.0 11.0 0.00 0.00 0.00 23 1018.0
20260904163717 99 281 4.0 9.0 0.00 0.00 0.00 23 1017.9
20260904163214 99 9 2.0 9.0 0.00 0.00 0.00 23 1018.0
20260904162712 99 284 0.0 9.0 0.00 0.00 0.00 23 1018.0
20260904162207 99 326 3.0 9.0 0.00 0.00 0.00 23 1017.9
20260904161209 99 354 1.0 8.0 0.00 0.00 0.00 23 1018.0
20260904160715 99 327 2.0 11.0 0.00 0.00 0.00 23 1018.0
20260904155737 99 82 2.0 12.0 0.00 0.00 0.00 22 1018.0
20260904154719 98 327 3.0 16.0 0.00 0.00 0.00 23 1018.0
20260904154219 99 340 3.0 16.0 0.00 0.00 0.00 22 1018.0
20260904153706 99 289 3.0 16.0 0.00 0.00 0.00 22 1018.2
20260904153219 100 350 6.0 11.0 0.00 0.00 0.00 22 1018.0
20260904152711 100 307 3.0 10.0 0.00 0.00 0.00 22 1018.2
20260904152208 100 319 4.0 9.0 0.00 0.00 0.00 21 1018.3
20260904151706 100 240 0.0 17.0 0.00 0.00 0.00 21 1018.3
20260904151212 101 1 1.0 17.0 0.00 0.00 0.00 21 1018.3
20260904150734 100 264 2.0 17.0 0.00 0.00 0.00 21 1018.3
20260904150205 100 284 8.0 17.0 0.00 0.00 0.00 22 1018.4
20260904145711 100 272 2.0 17.0 0.00 0.00 0.00 21 1018.5